Regional Weather Roundup
Issued by NWS

Home | Current Version | Previous Version | Graphics & Text | Print | Product List | Glossary On
Versions: 1 2 3 4 5 6 7 8 9 10 11 12 13 14 15 16 17 18 19 20 21 22 23 24 25 26 27 28 29 30 31 32 33 34 35 36 37 38 39 40 41 42 43 44 45 46 47 48 49 50
000
ASUS45 KABQ 300210
RWRNM
NEW MEXICO REGIONAL WEATHER ROUNDUP
NATIONAL WEATHER SERVICE ALBUQUERQUE NM
800 PM MDT WED JUL 29 2015

NOTE: "FAIR" MEANS FEW OR NO CLOUDS BELOW 12,000 FEET AGL WITH NO
       SIGNIFICANT WEATHER OR OBSTRUCTIONS TO VISION.

      THIS PRODUCT IS RELEASED AS TWO VERSIONS.  ONE VERSION NEAR
      THE TOP OF THE HOUR CONTAINING PRELIMINARY DATA FROM ALBUQUERQUE
      AND OTHER STATIONS.  A FINAL VERSION WITH ADDITIONAL DATA IS
      ISSUED ABOUT 10 MINUTES AFTER THE HOUR.

NMZ501-503-504-510>518-300300-
NORTHWEST PLATEAU/NORTHCENTRAL MOUNTAINS

CITY           SKY/WX    TMP DP  RH WIND       PRES   REMARKS
FARMINGTON     CLEAR     77  44  30 E7        30.23S
LOS ALAMOS     LGT RAIN  66  49  53 N13G24    30.41S
SANTA FE       RAIN      62  58  86 S9        30.39R FOG
TAOS           CLOUDY    63  45  51 N8        30.45R
ANGEL FIRE     MOCLDY    55  51  86 N5        30.55S

$$
NMZ402-403-502-505>509-300300-
WESTCENTRAL MOUNTAINS/SOUTHWEST MOUNTAINS

CITY           SKY/WX    TMP DP  RH WIND       PRES   REMARKS
GALLUP         CLOUDY    65  53  65 S15G24    30.37R
GRANTS         CLOUDY    60  58  94 N5        30.40F
SILVER CITY      N/A     72  61  68 NW10      30.26R

$$
NMZ407-409-411-412-300300-
SOUTHERN DESERTS

CITY           SKY/WX    TMP DP  RH WIND       PRES   REMARKS
LORDSBURG      TSTM      68  64  88 NE10      30.21R
DEMING         TSTM      77  61  57 SW9G25    30.14R
LAS CRUCES     TSTM      68  65  91 NW9       30.20R
ALAMOGORDO     MOCLDY    72  61  68 CALM      30.19R
T OR C         MOCLDY    76  61  59 E10       30.21R

$$
NMZ519>523-300300-
CENTRAL VALLEYS/CENTRAL HIGHLANDS

CITY           SKY/WX    TMP DP  RH WIND       PRES   REMARKS
ALBUQUERQUE    LGT RAIN  72  59  63 S9        30.29R
DOUBLE EAGLE   MOCLDY    70  63  78 N12       30.33R
MORIARTY ARPT    N/A     63  58  84 NE5       30.37R THUNDER
CLINES CORNERS LGT RAIN  64  57  78 N14       30.40R
BELEN          CLOUDY    73  59  63 CALM      30.27R
SOCORRO        MOCLDY    75  56  53 SE8       30.25R

$$
NMZ524>526-539-540-300300-
SOUTHCENTRAL MOUNTAINS

CITY           SKY/WX    TMP DP  RH WIND       PRES   REMARKS
RUIDOSO          N/A    N/A N/A N/A MISG        N/A

$$
NMZ527>531-300300-
NORTHEAST HIGHLANDS/NORTHEAST PLAINS

CITY           SKY/WX    TMP DP  RH WIND       PRES   REMARKS
LAS VEGAS      TSTM      58  57  97 S10       30.47R FOG
RATON          RAIN      58  56  93 N9        30.42F FOG
CLAYTON        PTCLDY    71  59  65 E8        30.30R

$$
NMZ532>537-300300-
EASTCENTRAL PLAINS

CITY           SKY/WX    TMP DP  RH WIND       PRES   REMARKS
TUCUMCARI      PTCLDY    76  66  71 NE8       30.20R
CANNON AFB     PTCLDY    78  64  61 E1        30.20R
CLOVIS AIRPORT CLOUDY    81  64  57 E6        30.21S

$$
NMZ028-029-538-300300-
SOUTHEAST PLAINS

CITY           SKY/WX    TMP DP  RH WIND       PRES   REMARKS
ROSWELL        MOCLDY    88  61  40 NE13      30.10S
ARTESIA        MOCLDY    88  59  37 E10G17    30.10R
CARLSBAD       MOCLDY    89  60  37 N7        30.05S
HOBBS          PTCLDY    86  55  35 E8        30.12S


$$



USA.gov is the U.S. government's official web portal to all federal, state and local government web resources and services.